Location: Newark
(33.6439°N, 114.9881°W)
Time: 08:22:18
(UTC+00:00)

A-11 Canister half - Pass Details

Date: 31 August 2019
Orbit: 1527 x 1682 km, 47.3° (Epoch: 21 October)

Event Time Altitude Azimuth Distance (km) Brightness Sun altitude
Rises 02:04:10 0° 293° (WNW) 4,935 13.8 0.0°
Reaches altitude 10° 02:08:32 10° 277° (W) 3,939 13.4 -0.9°
Maximum altitude 02:15:01 19° 237° (WSW) 3,224 11.4 -2.2°
Drops below altitude 10° 02:21:28 10° 195° (SSW) 3,884 11.2 -3.5°
Sets 02:25:47 0° 179° (S) 4,843 11.5 -4.4°
